Flag for Germany Weather past 2 weeks in Radebeul, Saxony, Germany

Now
65 °F

Overcast.


Feels Like: 65 °F
Forecast: 61 / 76 °F
Wind: 6 mph from Northeast

Location: Dresden-Klotzsche

Current Time: Jul 24, 2014 at 6:13:07 PM

Latest Report: Jul 24, 2014 at 4:00 PM


Visibility: 11 mi

Pressure: 29.97 "Hg

Humidity: 83%

Dew point: 60 °F

Location of RadebeulLocation

Historic Weather in Radebeul — Graph

°F

Radebeul temperature yesterday

Maximum temperature yesterday: 82 °F (at 5:00 PM)
Minimum temperature yesterday: 61 °F (at 6:00 AM)
Average temperature yesterday: 71 °F

Past Weeks' High & Low Weather Summary

 TemperatureHumidityPressure
High90 °F (Jul 20, 4:00 PM)97% (Jul 10, 11:00 AM)30.18 "Hg (Jul 10, 11:00 AM)
Low52 °F (Jul 13, 4:00 AM)25% (Jul 20, 4:00 PM)29.66 "Hg (Jul 9, 4:00 PM)
Average69 °F68%29.93 "Hg
* Reported Jul 9 4:00 PM — Jul 24 4:00 PM, Radebeul, Weather by CustomWeather, © 2014

Note: Actual official high and low records may vary slightly from our data, if they occured in-between our weather recording intervals... More about our weather records

Advertising

Radebeul weather history for previous 24 hours

 ConditionsComfort  
Time TempWeatherWind HumidityBarometerVisibility
4:00 PM
Jul 24
65 °FOvercast.6 mph83%29.97 "Hg11 mi
3:00 PM64 °FOvercast.3 mph92%29.98 "Hg7 mi
2:00 PM63 °FSprinkles. Overcast.3 mph91%29.99 "Hg7 mi
1:00 PM61 °FOvercast.3 mph93%30.00 "Hg10 mi
12:00 PM62 °FLight rain. Overcast.3 mph86%30.00 "Hg11 mi
10:00 AM62 °FOvercast.3 mph80%29.99 "Hg17 mi
9:00 AM61 °FPartly sunny.2 mph83%30.00 "Hg17 mi
8:00 AM60 °FPassing clouds.2 mph83%30.00 "Hg17 mi
7:00 AM59 °FPassing clouds.3 mph85%30.00 "Hg17 mi
6:00 AM57 °FFog.2 mph91%30.00 "Hg19 mi
5:00 AM58 °FPassing clouds.2 mph90%29.99 "Hg19 mi
4:00 AM60 °FPassing clouds.2 mph85%29.99 "Hg19 mi
3:00 AM60 °FPassing clouds.2 mph82%29.99 "Hg19 mi
2:00 AM61 °FPassing clouds.2 mph78%30.01 "Hg19 mi
1:00 AM63 °FPassing clouds.3 mph74%30.01 "Hg19 mi
12:00 AM64 °FPassing clouds.2 mph72%30.01 "Hg25 mi
10:00 PM
Jul 23
64 °FPassing clouds.2 mph70%30.01 "Hg25 mi
9:00 PM67 °FScattered clouds.5 mph62%29.99 "Hg28 mi
8:00 PM69 °FPartly sunny.13 mph58%29.98 "Hg28 mi
7:00 PM80 °FScattered clouds.6 mph28%29.95 "Hg22 mi
6:00 PM81 °FScattered clouds.7 mph25%29.95 "Hg28 mi
Weather by CustomWeather, © 2014

See weather overviewHow to use our weather pages